Location: Kitt Peak
(31.9639°N, 111.5992°W)
Time: 20:46:11
(UTC-07:00)

FO-29 - Visible Passes

Search period start: 18 September 2024 00:00
Search period end: 28 September 2024 00:00
Orbit: 801 x 1320 km, 98.6° (Epoch: 18 September)

Date Brightness Start Highest point End Pass type
(mag) Time Alt. Az. Time Alt. Az. Time Alt. Az.
18 Sep 12.5 00:22:58 10° NNE 00:23:21 11° NNE 00:23:21 11° NNE visible
18 Sep 12.1 02:08:08 10° N 02:09:48 17° NNW 02:09:48 17° NNW visible
19 Sep 12.2 01:12:27 10° N 01:13:51 17° N 01:13:51 17° N visible
19 Sep 12.3 03:00:12 10° NNW 03:00:19 10° NNW 03:00:19 10° NNW visible
20 Sep 12.2 02:02:53 10° N 02:04:21 16° N 02:04:21 16° N visible
21 Sep 12.3 01:07:19 10° NNE 01:08:24 15° NNE 01:08:24 15° NNE visible
21 Sep 12.3 02:54:46 10° NNW 02:54:52 10° NNW 02:54:52 10° NNW visible
22 Sep 12.2 01:57:41 10° N 01:58:54 15° N 01:58:54 15° N visible
23 Sep 12.4 01:02:11 10° NNE 01:02:57 13° NNE 01:02:57 13° NNE visible
23 Sep 12.3 02:49:22 10° NNW 02:49:25 10° NNW 02:49:25 10° NNW visible
24 Sep 12.3 01:52:29 10° N 01:53:27 14° N 01:53:27 14° N visible
25 Sep 12.5 00:57:04 10° NNE 00:57:29 12° NNE 00:57:29 12° NNE visible
26 Sep 12.4 01:47:18 10° N 01:47:59 13° N 01:47:59 13° N visible
27 Sep 12.6 00:51:58 10° NNE 00:52:01 10° NNE 00:52:01 10° NNE visible
